CW6697 Weather Reports


time (UTC)temp
C
wind
direction
speed
KPH
gust
KPH
rain 1hr
cm
rain 24hr
cm
rain mn
cm
humidity
%
barometer
mb
20260506191416 26 246 3.2 6.4 0.00 0.00 0.00 35 1012.8
20260506190914 26 257 3.2 6.4 0.00 0.00 0.00 37 1012.6
20260506190410 25 12 3.2 19.3 0.00 0.00 0.00 36 1012.7
20260506185907 26 199 3.2 9.7 0.00 0.00 0.00 34 1012.9
20260506185405 26 357 3.2 8.0 0.00 0.00 0.00 36 1012.5
20260506184902 25 34 4.8 11.3 0.00 0.00 0.00 34 1012.8
20260506184358 26 337 3.2 11.3 0.00 0.00 0.00 34 1012.7
20260506183856 26 328 4.8 11.3 0.00 0.00 0.00 34 1012.6
20260506183356 26 298 4.8 22.5 0.00 0.00 0.00 35 1012.7
20260506182854 26 315 3.2 8.0 0.00 0.00 0.00 36 1012.7
20260506182350 25 1 0.0 6.4 0.00 0.00 0.00 38 1012.6
20260506181843 25 351 3.2 8.0 0.00 0.00 0.00 38 1012.7
20260506181341 24 307 4.8 6.4 0.00 0.00 0.00 38 1013.0
20260506180837 25 352 3.2 8.0 0.00 0.00 0.00 38 1012.8
20260506180333 25 265 3.2 6.4 0.00 0.00 0.00 38 1012.5
20260506175829 25 329 3.2 6.4 0.00 0.00 0.00 37 1012.7
20260506175326 25 337 4.8 4.8 0.00 0.00 0.00 37 1012.7
20260506174823 25 350 3.2 19.3 0.00 0.00 0.00 35 1012.6
20260506174321 25 81 3.2 11.3 0.00 0.00 0.00 34 1012.5
20260506173818 25 324 4.8 17.7 0.00 0.00 0.00 34 1012.7
20260506173315 25 343 3.2 12.9 0.00 0.00 0.00 34 1012.8
20260506172812 26 315 3.2 8.0 0.00 0.00 0.00 34 1012.9
20260506172308 25 338 4.8 9.7 0.00 0.00 0.00 34 1012.6
20260506171806 25 295 6.4 9.7 0.00 0.00 0.00 34 1012.6
20260506171303 25 331 0.0 8.0 0.00 0.00 0.00 34 1012.9
20260506170800 25 345 4.8 6.4 0.00 0.00 0.00 33 1012.6
20260506170256 25 312 4.8 6.4 0.00 0.00 0.00 37 1013.2
20260506165755 25 346 1.6 6.4 0.00 0.00 0.00 36 1012.9
20260506165252 24 346 3.2 9.7 0.00 0.00 0.00 38 1013.0
20260506164749 24 306 4.8 9.7 0.00 0.00 0.00 39 1012.9
20260506164246 23 68 1.6 12.9 0.00 0.00 0.00 40 1013.0
20260506163738 23 293 4.8 8.0 0.00 0.00 0.00 36 1013.0
20260506163232 23 248 3.2 6.4 0.00 0.00 0.00 40 1013.3
20260506162728 22 309 3.2 8.0 0.00 0.00 0.00 40 1012.9
20260506162226 22 291 3.2 6.4 0.00 0.00 0.00 40 1013.2
20260506161718 22 316 4.8 6.4 0.00 0.00 0.00 42 1013.0
20260506161215 22 332 3.2 9.7 0.00 0.00 0.00 43 1013.3
20260506160712 22 242 3.2 9.7 0.00 0.00 0.00 43 1013.2
20260506160208 21 293 4.8 9.7 0.00 0.00 0.00 43 1013.4
20260506155707 21 352 3.2 14.5 0.00 0.00 0.00 45 1013.4
20260506155204 20 300 1.6 6.4 0.00 0.00 0.00 45 1013.6
20260506153306 20 263 3.2 8.0 0.00 0.00 0.00 44 1013.5
20260506152803 20 262 3.2 4.8 0.00 0.00 0.00 46 1013.3
20260506152300 19 333 0.0 6.4 0.00 0.00 0.00 47 1013.5
20260506151759 18 275 3.2 6.4 0.00 0.00 0.00 46 1013.6
20260506151255 18 255 6.4 8.0 0.00 0.00 0.00 46 1013.7
20260506150752 18 260 4.8 8.0 0.00 0.00 0.00 48 1013.6
20260506150249 17 251 4.8 6.4 0.00 0.00 0.00 49 1013.6
20260506145746 17 261 3.2 4.8 0.00 0.00 0.00 49 1013.6
20260506145242 17 268 3.2 6.4 0.00 0.00 0.00 49 1013.8
20260506144740 16 317 3.2 6.4 0.00 0.00 0.00 49 1013.7
20260506144237 16 286 4.8 6.4 0.00 0.00 0.00 50 1013.8
20260506143734 16 155 4.8 11.3 0.00 0.00 0.00 50 1013.9
20260506143231 16 347 1.6 17.7 0.00 0.00 0.00 49 1013.8
20260506142730 16 340 3.2 9.7 0.00 0.00 0.00 49 1013.8
20260506142228 16 320 9.7 12.9 0.00 0.00 0.00 50 1014.0
20260506141725 16 32 8.0 11.3 0.00 0.00 0.00 52 1013.8
20260506141224 16 229 9.7 20.9 0.00 0.00 0.00 49 1013.8
20260506140721 16 7 6.4 11.3 0.00 0.00 0.00 52 1013.7
20260506140218 16 354 3.2 6.4 0.00 0.00 0.00 51 1014.0
20260506135714 16 296 0.0 12.9 0.00 0.00 0.00 49 1013.7
20260506135211 16 25 4.8 12.9 0.00 0.00 0.00 49 1013.7
20260506134708 16 289 3.2 12.9 0.00 0.00 0.00 50 1013.8
20260506134204 15 0 3.2 11.3 0.00 0.00 0.00 51 1013.9
20260506133701 15 35 6.4 12.9 0.00 0.00 0.00 52 1013.8
20260506133157 15 69 3.2 6.4 0.00 0.00 0.00 52 1013.9
20260506132655 15 321 3.2 6.4 0.00 0.00 0.00 55 1013.7
20260506132152 15 263 0.0 11.3 0.00 0.00 0.00 51 1013.9
20260506131649 15 330 3.2 11.3 0.00 0.00 0.00 51 1013.6
20260506131145 13 351 4.8 8.0 0.00 0.00 0.00 56 1013.6
20260506130642 13 356 3.2 6.4 0.00 0.00 0.00 58 1013.8
20260506130140 13 5 3.2 6.4 0.00 0.00 0.00 57 1013.8
20260506125638 13 353 1.6 9.7 0.00 0.00 0.00 57 1013.7
20260506125135 13 59 4.8 6.4 0.00 0.00 0.00 59 1014.0
20260506124633 13 11 1.6 6.4 0.00 0.00 0.00 60 1013.7
20260506124130 13 4 3.2 6.4 0.00 0.00 0.00 59 1014.0
20260506123628 12 57 4.8 8.0 0.00 0.00 0.00 59 1013.9
20260506123127 12 40 4.8 6.4 0.00 0.00 0.00 60 1013.6
20260506122623 12 22 3.2 4.8 0.00 0.00 0.00 60 1013.7
20260506122121 12 40 3.2 6.4 0.00 0.00 0.00 60 1013.6
20260506121618 12 23 4.8 6.4 0.00 0.00 0.00 61 1013.7
20260506121114 12 10 3.2 4.8 0.00 0.00 0.00 61 1013.7
20260506120613 12 43 3.2 4.8 0.00 0.00 0.00 61 1013.7
20260506120110 12 37 4.8 8.0 0.00 0.00 0.00 61 1013.7
20260506115608 12 9 1.6 4.8 0.00 0.00 0.00 62 1013.8
20260506115106 12 23 3.2 4.8 0.00 0.00 0.00 62 1013.8
20260506114603 12 29 3.2 4.8 0.00 0.00 0.00 62 1013.6
20260506114101 12 51 1.6 6.4 0.00 0.00 0.00 62 1013.6
20260506113558 12 51 6.4 9.7 0.00 0.00 0.00 61 1013.5
20260506113055 11 10 3.2 4.8 0.00 0.00 0.00 65 1013.6
20260506112552 11 22 3.2 4.8 0.00 0.00 0.00 65 1013.6
20260506112049 11 38 0.0 3.2 0.00 0.00 0.00 65 1013.5
20260506111547 11 44 0.0 4.8 0.00 0.00 0.00 65 1013.6
20260506111044 11 67 0.0 3.2 0.00 0.00 0.00 64 1013.3
20260506110542 11 37 0.0 3.2 0.00 0.00 0.00 64 1013.3
20260506110039 11 31 1.6 3.2 0.00 0.00 0.00 63 1013.4
20260506105535 12 61 3.2 3.2 0.00 0.00 0.00 64 1013.6
20260506105032 12 38 1.6 3.2 0.00 0.00 0.00 64 1013.3
20260506104530 12 19 0.0 3.2 0.00 0.00 0.00 63 1013.4
20260506104028 12 41 1.6 3.2 0.00 0.00 0.00 61 1013.5
20260506103525 12 43 4.8 6.4 0.00 0.00 0.00 61 1013.5
20260506103021 12 20 6.4 6.4 0.00 0.00 0.00 61 1013.5
20260506102520 12 44 4.8 6.4 0.00 0.00 0.00 60 1013.5
20260506102017 12 344 3.2 8.0 0.00 0.00 0.00 59 1013.5
20260506101513 12 11 3.2 4.8 0.00 0.00 0.00 64 1013.4
20260506101011 12 26 0.0 3.2 0.00 0.00 0.00 66 1013.3
20260506100509 12 47 1.6 3.2 0.00 0.00 0.00 64 1013.3
20260506100007 12 138 1.6 3.2 0.00 0.00 0.00 63 1013.4
20260506095505 13 64 1.6 3.2 0.00 0.00 0.00 60 1013.5
20260506095001 13 41 6.4 6.4 0.00 0.00 0.00 61 1013.4
20260506094459 13 53 4.8 9.7 0.00 0.00 0.00 59 1013.3
20260506093956 13 37 3.2 6.4 0.00 0.00 0.00 58 1013.4
20260506093455 13 25 6.4 6.4 0.00 0.00 0.00 57 1013.3
20260506092952 13 12 6.4 6.4 0.00 0.00 0.00 58 1013.5
20260506092450 13 13 4.8 8.0 0.00 0.00 0.00 57 1013.4
20260506091946 14 44 4.8 8.0 0.00 0.00 0.00 57 1013.4
20260506091445 14 12 3.2 6.4 0.00 0.00 0.00 55 1013.2
20260506090942 14 41 4.8 6.4 0.00 0.00 0.00 56 1013.4
20260506090440 14 16 6.4 9.7 0.00 0.00 0.00 56 1013.3
20260506085935 14 41 4.8 14.5 0.00 0.00 0.00 58 1013.3
20260506085432 13 29 3.2 9.7 0.00 0.00 0.00 58 1013.0
20260506084929 14 19 6.4 8.0 0.00 0.00 0.00 58 1013.3
20260506084426 14 14 6.4 6.4 0.00 0.00 0.00 56 1013.0
20260506083922 15 50 4.8 9.7 0.00 0.00 0.00 55 1013.3
20260506083419 15 5 4.8 9.7 0.00 0.00 0.00 55 1013.2
20260506082916 15 17 4.8 8.0 0.00 0.00 0.00 55 1012.9
20260506082414 15 19 4.8 6.4 0.00 0.00 0.00 54 1013.3
20260506081909 15 1 4.8 6.4 0.00 0.00 0.00 53 1013.2
20260506081408 15 14 4.8 6.4 0.00 0.00 0.00 53 1012.8
20260506080905 16 0 6.4 6.4 0.00 0.00 0.00 53 1013.3
20260506080402 16 351 3.2 9.7 0.00 0.00 0.00 52 1013.0
20260506073345 15 357 3.2 6.4 0.00 0.00 0.00 54 1012.8
20260506072842 16 349 3.2 4.8 0.00 0.00 0.00 53 1012.8
20260506072340 16 27 6.4 9.7 0.00 0.00 0.00 52 1012.9
20260506071837 16 12 4.8 6.4 0.00 0.00 0.00 52 1012.8
20260506071335 17 249 8.0 11.3 0.00 0.00 0.00 49 1012.7
20260506070832 17 307 6.4 9.7 0.00 0.00 0.00 50 1012.6
20260506070329 17 357 3.2 8.0 0.00 0.00 0.00 50 1013.0
20260506062306 18 15 3.2 8.0 0.00 0.00 0.00 47 1012.6
20260506061802 19 180 3.2 8.0 0.00 0.00 0.00 45 1012.5
20260506061259 19 330 6.4 9.7 0.00 0.00 0.00 46 1012.4
20260506060757 19 14 1.6 12.9 0.00 0.00 0.00 45 1012.3
20260506060255 18 350 3.2 9.7 0.00 0.00 0.00 47 1012.5
20260506051226 18 346 3.2 6.4 0.00 0.00 0.00 50 1012.0
20260506050724 18 341 0.0 6.4 0.00 0.00 0.00 50 1012.2
20260506050221 18 259 4.8 6.4 0.00 0.00 0.00 49 1012.1
20260506044712 18 348 0.0 4.8 0.00 0.00 0.00 47 1012.3
20260506044209 18 348 3.2 6.4 0.00 0.00 0.00 47 1012.1
20260506043706 18 304 0.0 3.2 0.00 0.00 0.00 48 1012.0
20260506043204 18 315 1.6 3.2 0.00 0.00 0.00 48 1012.1
20260506042703 18 235 0.0 3.2 0.00 0.00 0.00 48 1012.1
20260506042200 18 293 0.0 3.2 0.00 0.00 0.00 48 1011.8
20260506041653 18 309 0.0 4.8 0.00 0.00 0.00 48 1011.4
20260506041150 18 334 3.2 4.8 0.00 0.00 0.00 48 1011.6
20260506040647 18 348 3.2 4.8 0.00 0.00 0.00 48 1011.8
20260506040144 18 355 1.6 4.8 0.00 0.00 0.00 47 1011.8
20260506035641 18 357 3.2 4.8 0.00 0.00 0.00 46 1011.7
20260506035137 19 340 3.2 4.8 0.00 0.00 0.00 46 1011.4
20260506034634 20 355 3.2 6.4 0.00 0.00 0.00 45 1011.4
20260506034131 20 325 3.2 4.8 0.00 0.00 0.00 43 1011.0
20260506033628 20 343 1.6 4.8 0.00 0.00 0.00 42 1011.1
20260506033125 21 304 1.6 6.4 0.00 0.00 0.00 41 1010.9
20260506032623 21 281 3.2 3.2 0.00 0.00 0.00 39 1011.0
20260506032119 21 305 3.2 9.7 0.00 0.00 0.00 38 1010.7
20260506031617 21 325 3.2 6.4 0.00 0.00 0.00 38 1010.9
20260506031113 21 288 3.2 4.8 0.00 0.00 0.00 39 1010.8
20260506030612 21 285 3.2 4.8 0.00 0.00 0.00 38 1010.6
20260506030109 22 281 3.2 4.8 0.00 0.00 0.00 38 1010.6
20260506025606 22 325 3.2 4.8 0.00 0.00 0.00 37 1010.3
20260506025102 22 315 3.2 4.8 0.00 0.00 0.00 36 1010.5
20260506024600 22 258 4.8 6.4 0.00 0.00 0.00 36 1010.5
20260506024056 22 251 0.0 4.8 0.00 0.00 0.00 36 1010.4
20260506023552 23 304 3.2 4.8 0.00 0.00 0.00 34 1010.1
20260506023050 23 311 6.4 8.0 0.00 0.00 0.00 33 1010.4
20260506022547 23 307 3.2 6.4 0.00 0.00 0.00 33 1010.3
20260506022044 24 259 6.4 24.1 0.00 0.00 0.00 32 1010.2
20260506021542 24 247 6.4 6.4 0.00 0.00 0.00 32 1010.4
20260506021039 25 321 6.4 9.7 0.00 0.00 0.00 31 1010.2
20260506020536 25 282 4.8 8.0 0.00 0.00 0.00 31 1010.2
20260506020033 25 317 4.8 8.0 0.00 0.00 0.00 30 1010.0
20260506015531 25 239 3.2 14.5 0.00 0.00 0.00 29 1010.3
20260506015028 25 301 4.8 9.7 0.00 0.00 0.00 30 1010.1
20260506014525 25 253 9.7 11.3 0.00 0.00 0.00 31 1010.0
20260506014021 25 278 6.4 8.0 0.00 0.00 0.00 30 1010.1
20260506013519 25 337 3.2 9.7 0.00 0.00 0.00 30 1010.1
20260506013016 25 320 6.4 12.9 0.00 0.00 0.00 30 1009.7
20260506012512 26 316 3.2 14.5 0.00 0.00 0.00 29 1009.6
20260506012009 26 295 3.2 11.3 0.00 0.00 0.00 29 1010.0
20260506011506 26 282 1.6 22.5 0.00 0.00 0.00 27 1009.9
20260506011002 26 351 3.2 8.0 0.00 0.00 0.00 29 1009.6
20260506010502 26 310 3.2 11.3 0.00 0.00 0.00 29 1009.7
20260506005957 27 309 1.6 4.8 0.00 0.00 0.00 29 1009.9
20260506005455 27 271 4.8 8.0 0.00 0.00 0.00 28 1009.6
20260506004950 27 301 4.8 11.3 0.00 0.00 0.00 26 1009.4
20260506004449 28 282 4.8 16.1 0.00 0.00 0.00 25 1009.6
20260506003944 27 0 6.4 9.7 0.00 0.00 0.00 26 1009.6
20260506003441 28 304 4.8 14.5 0.00 0.00 0.00 25 1009.4
20260506002937 29 330 0.0 8.0 0.00 0.00 0.00 25 1009.6
20260506002433 30 2 1.6 6.4 0.00 0.00 0.00 25 1009.6
20260506001929 28 327 1.6 9.7 0.00 0.00 0.00 24 1009.4
20260506001426 28 226 6.4 11.3 0.00 0.00 0.00 25 1009.6
20260506000923 29 304 1.6 6.4 0.00 0.00 0.00 24 1009.7
20260506000423 28 338 4.8 9.7 0.00 0.00 0.00 24 1010.0
20260505235917 29 257 4.8 16.1 0.00 0.00 0.00 23 1009.9
20260505235416 28 56 0.0 3.2 0.00 0.00 0.00 24 1010.0
20260505234912 29 134 3.2 9.7 0.00 0.00 0.00 24 1010.1
20260505234410 30 71 1.6 4.8 0.00 0.00 0.00 24 1010.0
20260505233906 30 239 3.2 11.3 0.00 0.00 0.00 23 1010.0
20260505233404 30 299 4.8 6.4 0.00 0.00 0.00 26 1009.7
20260505232901 30 71 1.6 8.0 0.00 0.00 0.00 25 1010.0
20260505232359 30 320 0.0 8.0 0.00 0.00 0.00 23 1010.1
20260505231855 30 85 3.2 11.3 0.00 0.00 0.00 24 1010.0
20260505231353 30 321 3.2 8.0 0.00 0.00 0.00 24 1009.9
20260505230851 30 265 3.2 6.4 0.00 0.00 0.00 23 1010.0
20260505230348 29 281 3.2 11.3 0.00 0.00 0.00 25 1010.2
20260505225845 28 69 3.2 9.7 0.00 0.00 0.00 24 1010.1
20260505225342 30 188 4.8 11.3 0.00 0.00 0.00 23 1010.2
20260505224837 29 214 1.6 8.0 0.00 0.00 0.00 23 1010.2
20260505224335 30 241 3.2 11.3 0.00 0.00 0.00 23 1010.4
20260505223832 29 309 0.0 4.8 0.00 0.00 0.00 23 1010.3
20260505223329 30 231 6.4 11.3 0.00 0.00 0.00 23 1010.4
20260505222824 30 308 4.8 6.4 0.00 0.00 0.00 24 1010.2
20260505222321 29 278 3.2 8.0 0.00 0.00 0.00 25 1010.6
20260505221818 29 196 4.8 11.3 0.00 0.00 0.00 24 1010.6
20260505221315 28 225 1.6 4.8 0.00 0.00 0.00 23 1010.4
20260505220812 27 298 3.2 3.2 0.00 0.00 0.00 26 1010.6
20260505220309 28 1 3.2 6.4 0.00 0.00 0.00 27 1010.7
20260505215807 30 344 3.2 6.4 0.00 0.00 0.00 27 1010.7
20260505215305 28 310 3.2 3.2 0.00 0.00 0.00 27 1010.8
20260505214802 27 340 1.6 4.8 0.00 0.00 0.00 28 1010.7
20260505214259 27 353 1.6 4.8 0.00 0.00 0.00 24 1011.0
20260505213756 27 148 4.8 17.7 0.00 0.00 0.00 26 1010.8
20260505213254 28 22 6.4 11.3 0.00 0.00 0.00 23 1010.8
20260505212749 30 160 4.8 6.4 0.00 0.00 0.00 24 1011.0
20260505212247 28 2 3.2 6.4 0.00 0.00 0.00 25 1011.0
20260505211744 28 0 4.8 4.8 0.00 0.00 0.00 26 1011.0
20260505211242 29 323 3.2 14.5 0.00 0.00 0.00 24 1011.0
20260505210737 29 147 3.2 4.8 0.00 0.00 0.00 23 1011.1
20260505210234 28 253 6.4 9.7 0.00 0.00 0.00 23 1010.9
20260505205732 29 284 3.2 6.4 0.00 0.00 0.00 25 1011.1
20260505205230 28 197 1.6 6.4 0.00 0.00 0.00 25 1011.3
20260505204726 28 236 4.8 6.4 0.00 0.00 0.00 24 1011.3
20260505204224 28 260 4.8 9.7 0.00 0.00 0.00 23 1011.6
20260505203721 28 162 1.6 6.4 0.00 0.00 0.00 21 1011.6
20260505203218 28 209 3.2 8.0 0.00 0.00 0.00 23 1011.3
20260505202713 28 331 1.6 6.4 0.00 0.00 0.00 22 1011.3
20260505202210 28 206 3.2 6.4 0.00 0.00 0.00 25 1011.3
20260505201706 28 209 0.0 6.4 0.00 0.00 0.00 23 1011.3
20260505201205 28 19 4.8 6.4 0.00 0.00 0.00 25 1011.9
20260505200702 27 103 0.0 11.3 0.00 0.00 0.00 23 1011.7
20260505200159 28 310 3.2 14.5 0.00 0.00 0.00 23 1011.8
20260505195655 28 276 1.6 9.7 0.00 0.00 0.00 24 1011.8
20260505195152 28 212 4.8 6.4 0.00 0.00 0.00 21 1011.8
20260505194649 28 344 3.2 8.0 0.00 0.00 0.00 20 1012.1
20260505194145 28 348 1.6 6.4 0.00 0.00 0.00 23 1011.9
20260505193642 28 185 0.0 6.4 0.00 0.00 0.00 24 1012.1
20260505193139 27 148 3.2 9.7 0.00 0.00 0.00 24 1012.0
20260505192638 28 88 3.2 8.0 0.00 0.00 0.00 22 1011.9
20260505192135 28 341 4.8 9.7 0.00 0.00 0.00 23 1011.9